TimeEDT,TemperatureF,Dew PointF,Humidity,Sea Level PressureIn,VisibilityMPH,Wind Direction,Wind SpeedMPH,Gust SpeedMPH,PrecipitationIn,Events,Conditions,WindDirDegrees,DateUTC
12:15 AM,51.8,51.8,100,30.24,4.0,Calm,Calm,-,N/A,,Clear,0,2013-04-07 04:15:00
12:35 AM,51.8,51.8,100,30.24,5.0,Calm,Calm,-,N/A,,Clear,0,2013-04-07 04:35:00
12:55 AM,51.8,51.8,100,30.24,4.0,Calm,Calm,-,N/A,,Clear,0,2013-04-07 04:55:00
1:15 AM,51.8,50.0,94,30.23,3.0,Calm,Calm,-,N/A,,Clear,0,2013-04-07 05:15:00
1:35 AM,50.0,50.0,100,30.23,3.0,Calm,Calm,-,N/A,,Clear,0,2013-04-07 05:35:00
1:55 AM,50.0,48.2,94,30.21,3.0,Calm,Calm,-,N/A,,Clear,0,2013-04-07 05:55:00
2:15 AM,48.2,48.2,100,30.21,5.0,Calm,Calm,-,N/A,,Clear,0,2013-04-07 06:15:00
2:35 AM,48.2,48.2,100,30.20,3.0,Calm,Calm,-,N/A,,Clear,0,2013-04-07 06:35:00
2:55 AM,48.2,48.2,100,30.20,3.0,Calm,Calm,-,N/A,,Clear,0,2013-04-07 06:55:00
3:15 AM,48.2,48.2,100,30.19,3.0,Calm,Calm,-,N/A,,Clear,0,2013-04-07 07:15:00
3:35 AM,48.2,48.2,100,30.19,4.0,Calm,Calm,-,N/A,,Clear,0,2013-04-07 07:35:00
3:55 AM,48.2,48.2,100,30.19,4.0,Calm,Calm,-,N/A,,Clear,0,2013-04-07 07:55:00
4:15 AM,48.2,48.2,100,30.19,4.0,Calm,Calm,-,N/A,,Clear,0,2013-04-07 08:15:00
4:35 AM,48.2,48.2,100,30.19,3.0,Calm,Calm,-,N/A,,Clear,0,2013-04-07 08:35:00
4:55 AM,50.0,48.2,94,30.20,3.0,Calm,Calm,-,N/A,,Clear,0,2013-04-07 08:55:00
5:15 AM,48.2,48.2,100,30.20,3.0,Calm,Calm,-,N/A,,Clear,0,2013-04-07 09:15:00
5:55 AM,48.2,48.2,100,30.20,2.5,Calm,Calm,-,N/A,,Partly Cloudy,0,2013-04-07 09:55:00
6:15 AM,48.2,48.2,100,30.20,3.0,Calm,Calm,-,N/A,,Scattered Clouds,0,2013-04-07 10:15:00
6:35 AM,48.2,48.2,100,30.21,2.5,Calm,Calm,-,N/A,,Partly Cloudy,0,2013-04-07 10:35:00
7:15 AM,48.2,48.2,100,30.22,1.8,Calm,Calm,-,N/A,,Scattered Clouds,0,2013-04-07 11:15:00
7:35 AM,48.2,48.2,100,30.23,2.5,Calm,Calm,-,N/A,,Mostly Cloudy,0,2013-04-07 11:35:00
7:55 AM,50.0,50.0,100,30.24,1.8,Calm,Calm,-,N/A,,Overcast,0,2013-04-07 11:55:00
8:15 AM,51.8,51.8,100,30.24,1.2,Calm,Calm,-,N/A,,Overcast,0,2013-04-07 12:15:00
8:35 AM,53.6,53.6,100,30.24,0.8,NNE,3.5,-,N/A,,Overcast,30,2013-04-07 12:35:00
8:55 AM,53.6,53.6,100,30.25,1.0,Calm,Calm,-,N/A,,Overcast,0,2013-04-07 12:55:00
9:15 AM,57.2,57.2,100,30.25,4.0,Calm,Calm,-,N/A,,Scattered Clouds,0,2013-04-07 13:15:00
9:35 AM,59.0,59.0,100,30.25,5.0,East,3.5,-,N/A,,Clear,90,2013-04-07 13:35:00
9:55 AM,62.6,57.2,82,30.25,5.0,East,4.6,-,N/A,,Haze,100,2013-04-07 13:55:00
10:15 AM,64.4,57.2,77,30.26,5.0,ENE,3.5,-,N/A,,Haze,60,2013-04-07 14:15:00
10:35 AM,64.4,57.2,77,30.26,6.0,Calm,Calm,-,N/A,,Haze,0,2013-04-07 14:35:00
10:55 AM,64.4,55.4,73,30.26,7.0,ESE,4.6,-,N/A,,Clear,120,2013-04-07 14:55:00
11:15 AM,66.2,57.2,73,30.27,6.0,ESE,4.6,-,N/A,,Haze,110,2013-04-07 15:15:00
11:35 AM,68.0,57.2,68,30.26,7.0,Calm,Calm,-,N/A,,Clear,0,2013-04-07 15:35:00
11:55 AM,68.0,57.2,68,30.26,7.0,ESE,3.5,-,N/A,,Clear,110,2013-04-07 15:55:00
12:15 PM,69.8,57.2,64,30.26,7.0,SE,6.9,-,N/A,,Clear,140,2013-04-07 16:15:00
12:55 PM,71.6,57.2,60,30.25,7.0,SE,4.6,-,N/A,,Clear,130,2013-04-07 16:55:00
1:15 PM,71.6,53.6,53,30.24,9.0,ESE,9.2,-,N/A,,Clear,120,2013-04-07 17:15:00
1:35 PM,71.6,50.0,46,30.23,9.0,East,9.2,-,N/A,,Clear,100,2013-04-07 17:35:00
1:55 PM,71.6,48.2,43,30.22,9.0,SE,8.1,-,N/A,,Clear,140,2013-04-07 17:55:00
2:15 PM,73.4,50.0,44,30.22,9.0,SSE,6.9,-,N/A,,Clear,150,2013-04-07 18:15:00
2:35 PM,73.4,50.0,44,30.21,9.0,ESE,5.8,-,N/A,,Clear,110,2013-04-07 18:35:00
2:55 PM,71.6,50.0,46,30.20,10.0,ESE,8.1,16.1,N/A,,Clear,120,2013-04-07 18:55:00
3:15 PM,71.6,51.8,50,30.19,10.0,SE,9.2,16.1,N/A,,Clear,130,2013-04-07 19:15:00
3:55 PM,71.6,55.4,57,30.19,8.0,SSE,11.5,17.3,N/A,,Clear,150,2013-04-07 19:55:00
4:15 PM,71.6,57.2,60,30.18,8.0,SE,8.1,-,N/A,,Clear,140,2013-04-07 20:15:00
4:35 PM,71.6,57.2,60,30.18,9.0,SE,9.2,-,N/A,,Clear,140,2013-04-07 20:35:00
4:55 PM,71.6,60.8,69,30.18,8.0,SE,6.9,-,N/A,,Clear,140,2013-04-07 20:55:00
5:15 PM,71.6,60.8,69,30.17,7.0,SE,5.8,-,N/A,,Clear,140,2013-04-07 21:15:00
5:55 PM,69.8,59.0,68,30.17,9.0,SE,10.4,-,N/A,,Clear,140,2013-04-07 21:55:00
6:15 PM,69.8,60.8,73,30.17,8.0,SSE,8.1,-,N/A,,Clear,150,2013-04-07 22:15:00
6:35 PM,68.0,60.8,78,30.17,8.0,SE,6.9,-,N/A,,Clear,140,2013-04-07 22:35:00
6:55 PM,66.2,60.8,83,30.17,8.0,SE,6.9,-,N/A,,Clear,130,2013-04-07 22:55:00
7:15 PM,66.2,60.8,83,30.16,7.0,SE,5.8,-,N/A,,Clear,130,2013-04-07 23:15:00
7:35 PM,64.4,60.8,88,30.16,7.0,Calm,Calm,-,N/A,,Clear,0,2013-04-07 23:35:00
7:55 PM,64.4,60.8,88,30.16,6.0,SE,4.6,-,N/A,,Clear,140,2013-04-07 23:55:00
8:15 PM,62.6,60.8,94,30.16,8.0,SE,4.6,-,N/A,,Clear,140,2013-04-08 00:15:00
8:35 PM,62.6,60.8,94,30.17,8.0,SE,4.6,-,N/A,,Clear,140,2013-04-08 00:35:00
8:55 PM,62.6,60.8,94,30.17,8.0,SE,4.6,-,N/A,,Clear,140,2013-04-08 00:55:00
9:15 PM,64.4,60.8,88,30.17,8.0,SE,6.9,-,N/A,,Clear,140,2013-04-08 01:15:00
9:35 PM,62.6,60.8,94,30.18,9.0,SE,4.6,-,N/A,,Clear,140,2013-04-08 01:35:00
10:15 PM,62.6,60.8,94,30.18,8.0,SE,5.8,-,N/A,,Clear,140,2013-04-08 02:15:00
10:35 PM,62.6,60.8,94,30.18,8.0,SSE,6.9,-,N/A,,Clear,150,2013-04-08 02:35:00
10:55 PM,62.6,60.8,94,30.18,8.0,SSE,4.6,-,N/A,,Clear,150,2013-04-08 02:55:00
11:15 PM,60.8,60.8,100,30.18,7.0,Calm,Calm,-,N/A,,Clear,0,2013-04-08 03:15:00
11:35 PM,60.8,59.0,94,30.18,6.0,Calm,Calm,-,N/A,,Clear,0,2013-04-08 03:35:00
11:55 PM,59.0,57.2,94,30.18,6.0,Calm,Calm,-,N/A,,Clear,0,2013-04-08 03:55:00